Location: Burzi?i
(45.0869°N, 16.0577°E)
Time: 11:52:33
(UTC+00:00)

USA 215 - Pass Details

Date: 29 October 2020
Orbit: 1102 x 1106 km, 123.0° (Epoch: 23 November)

Event Time Altitude Azimuth Distance (km) Brightness Sun altitude
Exits shadow 18:10:08 37° 43° (NE) 1,652 3.9 -25.7°
Maximum altitude 18:11:19 40° 19° (NNE) 1,575 3.9 -25.9°
Drops below altitude 10° 18:17:18 10° 312° (NW) 2,966 6.2 -26.9°
Sets 18:19:56 0° 306° (NW) 3,925 7.1 -27.4°
